Item Display Status Serial CT Sensor

Mooring Depth: 1 m

 

Deployed Sensor

  • Serial Number: 12489
  • NDBC Property Number: 38947
  • Start Date: 3/30/2020 (09:07:55 Z)
  • End Date: Currently Active
Water Temperature [°C]     6 entries per hour
Showing data from 10/22/2021 (22:00:00 Z) to 10/21/2021 (00:00:01 Z)
Previous Next [ Day | 3-Days | 7-Days ]
First Last
Prev [ Day | 3-Days | 7-Days ] Next
First Last

Start Time:     :
End Time:     :     
Time (in GMT) :00 :50 :40 :30 :20 :10
Previous Next [ Day | 3-Days | 7-Days ]
First Last
Prev [ Day | 3-Days | 7-Days ] Next
First Last


123 => good data
MM => data is determined as missing
-- => data not received/configured
Back to Top Back to Top
10/22/2021 22:00 to 21:10 22.973 22.981 22.988 22.968 22.972 22.970
10/22/2021 21:00 to 20:10 22.936 22.944 22.960 22.985 22.958 22.916
10/22/2021 20:00 to 19:10 22.919 22.918 22.932 22.913 22.909 22.913
10/22/2021 19:00 to 18:10 22.881 22.877 22.870 22.862 22.832 22.827
10/22/2021 18:00 to 17:10 22.854 22.812 22.795 22.797 22.767 22.774
10/22/2021 17:00 to 16:10 22.762 22.725 22.729 22.744 22.725 22.702
10/22/2021 16:00 to 15:10 22.703 22.682 22.693 22.669 22.676 22.664
10/22/2021 15:00 to 14:10 22.660 22.652 22.650 22.645 22.642 22.638
10/22/2021 14:00 to 13:10 22.636 22.637 22.635 22.631 22.635 22.628
10/22/2021 13:00 to 12:10 22.631 22.637 22.643 22.639 22.645 22.629
10/22/2021 12:00 to 11:10 22.632 22.630 22.636 22.634 22.638 22.626
10/22/2021 11:00 to 10:10 22.633 22.634 22.644 22.652 22.648 22.649
10/22/2021 10:00 to 9:10 22.662 22.656 22.654 22.666 22.662 22.646
10/22/2021 09:00 to 8:10 22.649 22.646 22.646 22.647 22.657 22.661
10/22/2021 08:00 to 7:10 22.662 22.662 22.661 22.658 22.654 22.661
10/22/2021 07:00 to 6:10 22.648 22.661 22.657 22.661 22.673 22.667
10/22/2021 06:00 to 5:10 22.673 22.670 22.673 22.669 22.640 22.644
10/22/2021 05:00 to 4:10 22.652 22.652 22.648 22.631 22.644 22.641
10/22/2021 04:00 to 3:10 22.642 22.639 22.629 22.637 22.628 22.631
10/22/2021 03:00 to 2:10 22.639 22.651 22.643 22.648 22.658 22.650
10/22/2021 02:00 to 1:10 22.668 22.680 22.688 22.692 22.689 22.715
10/22/2021 01:00 to 0:10 22.689 22.692 22.694 22.693 22.706 22.703
10/22/2021 00:00 to 23:10 22.683 22.690 22.675 22.688 22.713 22.720
10/21/2021 23:00 to 22:10 22.755 22.715 22.730 22.753 22.759 22.717
10/21/2021 22:00 to 21:10 22.736 22.793 22.765 22.731 22.763 22.747
10/21/2021 21:00 to 20:10 22.726 22.674 22.708 22.673 22.681 22.697
10/21/2021 20:00 to 19:10 22.692 22.706 22.696 22.726 22.693 22.604
10/21/2021 19:00 to 18:10 22.642 22.658 22.633 22.554 22.566 22.517
10/21/2021 18:00 to 17:10 22.479 22.508 22.494 22.451 22.466 22.445
10/21/2021 17:00 to 16:10 22.457 22.444 22.430 22.418 22.428 22.420
10/21/2021 16:00 to 15:10 22.433 22.415 22.423 22.411 22.396 22.398
10/21/2021 15:00 to 14:10 22.404 22.401 22.410 22.417 22.402 22.401
10/21/2021 14:00 to 13:10 22.401 22.401 22.403 22.405 22.407 22.410
10/21/2021 13:00 to 12:10 22.405 22.407 22.416 22.415 22.418 22.415
10/21/2021 12:00 to 11:10 22.405 22.402 22.418 22.424 22.437 22.443
10/21/2021 11:00 to 10:10 22.459 22.478 22.486 22.494 22.505 22.511
10/21/2021 10:00 to 9:10 22.497 22.502 22.502 22.509 22.507 22.507
10/21/2021 09:00 to 8:10 22.513 22.500 22.507 22.494 22.462 22.478
10/21/2021 08:00 to 7:10 22.478 22.487 22.466 22.485 22.485 22.490
10/21/2021 07:00 to 6:10 22.489 22.460 22.402 22.433 22.449 22.430
10/21/2021 06:00 to 5:10 22.410 22.398 22.428 22.432 22.419 22.425
10/21/2021 05:00 to 4:10 22.431 22.465 22.493 22.487 22.484 22.437
10/21/2021 04:00 to 3:10 22.437 22.443 22.469 22.463 22.484 22.516
10/21/2021 03:00 to 2:10 22.512 22.516 22.514 22.524 22.546 22.536
10/21/2021 02:00 to 1:10 22.572 22.580 22.605 22.612 22.635 22.638
10/21/2021 01:00 to 0:10 22.640 22.631 22.628 22.635 22.653 22.630

 

 

 

Conductivity [S/m]     6 entries per hour
Showing data from 10/22/2021 (22:00:00 Z) to 10/21/2021 (00:00:01 Z)
Previous Next [ Day | 3-Days | 7-Days ]
First Last
Prev [ Day | 3-Days | 7-Days ] Next
First Last

Start Time:     :
End Time:     :     
Time (in GMT) :00 :50 :40 :30 :20 :10
Previous Next [ Day | 3-Days | 7-Days ]
First Last
Prev [ Day | 3-Days | 7-Days ] Next
First Last


123 => good data
MM => data is determined as missing
-- => data not received/configured
Back to Top Back to Top
10/22/2021 22:00 to 21:10 5.09724 5.09756 5.09843 5.09635 5.09709 5.09672
10/22/2021 21:00 to 20:10 5.09342 5.09404 5.09565 5.09794 5.09503 5.09132
10/22/2021 20:00 to 19:10 5.09106 5.09108 5.09196 5.09051 5.09016 5.08974
10/22/2021 19:00 to 18:10 5.08679 5.08656 5.08591 5.08467 5.08168 5.08147
10/22/2021 18:00 to 17:10 5.08328 5.07952 5.07777 5.07794 5.07524 5.07575
10/22/2021 17:00 to 16:10 5.07434 5.07036 5.07084 5.07265 5.07047 5.06793
10/22/2021 16:00 to 15:10 5.06796 5.06563 5.06685 5.06414 5.06486 5.06359
10/22/2021 15:00 to 14:10 5.06305 5.06227 5.06220 5.06153 5.06108 5.06067
10/22/2021 14:00 to 13:10 5.06034 5.06020 5.06024 5.05991 5.06007 5.05937
10/22/2021 13:00 to 12:10 5.05962 5.06030 5.06103 5.06053 5.06080 5.05918
10/22/2021 12:00 to 11:10 5.05945 5.05918 5.05951 5.05933 5.06001 5.05861
10/22/2021 11:00 to 10:10 5.05922 5.05949 5.06072 5.06154 5.06121 5.06130
10/22/2021 10:00 to 9:10 5.06265 5.06205 5.06178 5.06290 5.06253 5.06086
10/22/2021 09:00 to 8:10 5.06094 5.06066 5.06085 5.06073 5.06188 5.06208
10/22/2021 08:00 to 7:10 5.06230 5.06236 5.06241 5.06174 5.06136 5.06200
10/22/2021 07:00 to 6:10 5.06084 5.06185 5.06137 5.06179 5.06312 5.06259
10/22/2021 06:00 to 5:10 5.06307 5.06282 5.06295 5.06209 5.05895 5.05998
10/22/2021 05:00 to 4:10 5.06079 5.06079 5.06028 5.05833 5.05965 5.05955
10/22/2021 04:00 to 3:10 5.05922 5.05915 5.05807 5.05875 5.05797 5.05826
10/22/2021 03:00 to 2:10 5.05915 5.06025 5.05912 5.05991 5.06080 5.06008
10/22/2021 02:00 to 1:10 5.06192 5.06327 5.06389 5.06440 5.06416 5.06670
10/22/2021 01:00 to 0:10 5.06400 5.06438 5.06456 5.06426 5.06565 5.06548
10/22/2021 00:00 to 23:10 5.06308 5.06361 5.06219 5.06340 5.06622 5.06677
10/21/2021 23:00 to 22:10 5.07018 5.06658 5.06811 5.07012 5.07087 5.06731
10/21/2021 22:00 to 21:10 5.06868 5.07407 5.07160 5.06753 5.07136 5.06942
10/21/2021 21:00 to 20:10 5.06730 5.06253 5.06474 5.06181 5.06276 5.06392
10/21/2021 20:00 to 19:10 5.06352 5.06504 5.06426 5.06685 5.06375 5.05415
10/21/2021 19:00 to 18:10 5.05896 5.05969 5.05763 5.04914 5.05033 5.04471
10/21/2021 18:00 to 17:10 5.04131 5.04404 5.04297 5.03831 5.03958 5.03784
10/21/2021 17:00 to 16:10 5.03873 5.03747 5.03595 5.03467 5.03567 5.03492
10/21/2021 16:00 to 15:10 5.03629 5.03446 5.03543 5.03383 5.03240 5.03214
10/21/2021 15:00 to 14:10 5.03310 5.03294 5.03384 5.03457 5.03294 5.03291
10/21/2021 14:00 to 13:10 5.03287 5.03324 5.03330 5.03336 5.03353 5.03387
10/21/2021 13:00 to 12:10 5.03337 5.03363 5.03440 5.03435 5.03474 5.03419
10/21/2021 12:00 to 11:10 5.03312 5.03260 5.03455 5.03520 5.03658 5.03737
10/21/2021 11:00 to 10:10 5.03899 5.04119 5.04211 5.04287 5.04385 5.04457
10/21/2021 10:00 to 9:10 5.04316 5.04330 5.04358 5.04415 5.04409 5.04396
10/21/2021 09:00 to 8:10 5.04473 5.04324 5.04403 5.04253 5.03894 5.04071
10/21/2021 08:00 to 7:10 5.04079 5.04160 5.03955 5.04168 5.04158 5.04223
10/21/2021 07:00 to 6:10 5.04201 5.03885 5.03263 5.03579 5.03746 5.03569
10/21/2021 06:00 to 5:10 5.03357 5.03224 5.03515 5.03558 5.03457 5.03479
10/21/2021 05:00 to 4:10 5.03573 5.03913 5.04197 5.04159 5.04124 5.03612
10/21/2021 04:00 to 3:10 5.03636 5.03683 5.04000 5.03910 5.04130 5.04487
10/21/2021 03:00 to 2:10 5.04430 5.04469 5.04451 5.04482 5.04792 5.04620
10/21/2021 02:00 to 1:10 5.05038 5.05128 5.05381 5.05460 5.05799 5.05700
10/21/2021 01:00 to 0:10 5.05726 5.05680 5.05627 5.05713 5.05880 5.05655

 

 

 

Salinity [psu]     6 entries per hour
Showing data from 10/22/2021 (22:00:00 Z) to 10/21/2021 (00:00:01 Z)
Previous Next [ Day | 3-Days | 7-Days ]
First Last
Prev [ Day | 3-Days | 7-Days ] Next
First Last

Start Time:     :
End Time:     :     
Time (in GMT) :00 :50 :40 :30 :20 :10
Previous Next [ Day | 3-Days | 7-Days ]
First Last
Prev [ Day | 3-Days | 7-Days ] Next
First Last


123 => good data
MM => data is determined as missing
-- => data not received/configured
Back to Top Back to Top
10/22/2021 22:00 to 21:10 35.01 35.00 35.00 35.00 35.00 35.00
10/22/2021 21:00 to 20:10 35.01 35.00 35.00 35.00 35.00 35.00
10/22/2021 20:00 to 19:10 35.00 35.00 35.00 35.00 35.00 35.00
10/22/2021 19:00 to 18:10 35.00 35.00 35.00 35.00 35.00 35.00
10/22/2021 18:00 to 17:10 34.99 35.00 35.00 35.00 35.00 35.00
10/22/2021 17:00 to 16:10 35.00 35.00 35.00 35.00 35.00 35.00
10/22/2021 16:00 to 15:10 34.99 34.99 34.99 34.99 34.99 34.99
10/22/2021 15:00 to 14:10 34.99 34.99 34.99 34.99 34.99 34.99
10/22/2021 14:00 to 13:10 34.99 34.99 34.99 34.99 34.99 34.99
10/22/2021 13:00 to 12:10 34.99 34.99 34.99 34.99 34.99 34.99
10/22/2021 12:00 to 11:10 34.99 34.99 34.98 34.98 34.99 34.98
10/22/2021 11:00 to 10:10 34.98 34.98 34.99 34.99 34.99 34.99
10/22/2021 10:00 to 9:10 34.99 34.99 34.99 34.99 34.99 34.99
10/22/2021 09:00 to 8:10 34.98 34.98 34.99 34.98 34.98 34.98
10/22/2021 08:00 to 7:10 34.98 34.98 34.98 34.98 34.98 34.98
10/22/2021 07:00 to 6:10 34.98 34.98 34.98 34.98 34.98 34.98
10/22/2021 06:00 to 5:10 34.98 34.98 34.98 34.98 34.98 34.98
10/22/2021 05:00 to 4:10 34.98 34.98 34.98 34.98 34.98 34.98
10/22/2021 04:00 to 3:10 34.98 34.98 34.98 34.98 34.98 34.98
10/22/2021 03:00 to 2:10 34.98 34.98 34.97 34.98 34.98 34.98
10/22/2021 02:00 to 1:10 34.98 34.98 34.98 34.98 34.98 34.98
10/22/2021 01:00 to 0:10 34.98 34.98 34.98 34.97 34.97 34.98
10/22/2021 00:00 to 23:10 34.97 34.97 34.97 34.97 34.97 34.97
10/21/2021 23:00 to 22:10 34.97 34.97 34.97 34.97 34.97 34.98
10/21/2021 22:00 to 21:10 34.97 34.97 34.97 34.97 34.97 34.97
10/21/2021 21:00 to 20:10 34.97 34.98 34.97 34.97 34.97 34.97
10/21/2021 20:00 to 19:10 34.97 34.97 34.97 34.97 34.97 34.97
10/21/2021 19:00 to 18:10 34.97 34.97 34.97 34.97 34.97 34.96
10/21/2021 18:00 to 17:10 34.97 34.97 34.97 34.97 34.96 34.97
10/21/2021 17:00 to 16:10 34.96 34.97 34.96 34.96 34.96 34.96
10/21/2021 16:00 to 15:10 34.96 34.97 34.97 34.96 34.96 34.96
10/21/2021 15:00 to 14:10 34.96 34.96 34.96 34.96 34.96 34.96
10/21/2021 14:00 to 13:10 34.96 34.97 34.97 34.96 34.96 34.96
10/21/2021 13:00 to 12:10 34.96 34.96 34.96 34.96 34.96 34.96
10/21/2021 12:00 to 11:10 34.96 34.96 34.96 34.96 34.96 34.97
10/21/2021 11:00 to 10:10 34.96 34.97 34.97 34.97 34.97 34.97
10/21/2021 10:00 to 9:10 34.97 34.96 34.97 34.97 34.97 34.97
10/21/2021 09:00 to 8:10 34.97 34.97 34.97 34.96 34.96 34.96
10/21/2021 08:00 to 7:10 34.96 34.96 34.96 34.97 34.96 34.97
10/21/2021 07:00 to 6:10 34.96 34.96 34.96 34.96 34.96 34.96
10/21/2021 06:00 to 5:10 34.96 34.96 34.96 34.96 34.96 34.96
10/21/2021 05:00 to 4:10 34.96 34.96 34.96 34.96 34.96 34.96
10/21/2021 04:00 to 3:10 34.96 34.96 34.97 34.96 34.96 34.97
10/21/2021 03:00 to 2:10 34.96 34.96 34.96 34.96 34.96 34.96
10/21/2021 02:00 to 1:10 34.96 34.96 34.96 34.96 34.97 34.96
10/21/2021 01:00 to 0:10 34.96 34.97 34.96 34.97 34.96 34.96